Theta_e
290 291 291 291 292 292 292 292 292 292 293 293 294 295 296 298 299 299 299 299 299 300 301 302 303 304 306 308 310 313 316 320 326 330 330 330 330 328 326 328 331 333 336 341 345 347 348 349 349 347 343 345 347 346 344 345 345 346 346 344 344 344 344 342 343 343 343 342 343 342 342 342 341 340 339 338 337 336 336 335 334 334 333 332 331
290 290 290 290 291 291 291 291 291 292 292 292 294 294 295 296 297 298 298 298 299 299 300 301 301 302 304 306 307 310 313 317 322 326 329 330 330 329 324 325 329 333 335 337 341 345 346 349 350 348 346 342 344 347 345 347 348 346 345 343 343 345 343 342 341 341 342 342 342 342 342 341 340 340 339 338 337 336 335 335 334 333 332 331 331
290 290 290 290 290 290 290 291 291 291 292 292 293 294 295 296 297 297 297 298 298 299 300 300 300 301 302 304 306 308 310 314 318 323 327 330 330 329 329 323 325 328 331 335 338 340 343 346 348 348 347 344 342 345 344 344 346 343 344 345 342 342 342 341 341 342 342 342 342 341 341 340 339 339 338 338 337 336 335 334 334 333 332 331 330
289 290 290 289 289 289 289 289 289 290 291 291 292 293 294 295 296 297 297 297 298 299 299 299 299 300 301 302 304 305 307 310 313 317 322 327 328 328 329 328 324 325 327 331 336 338 341 343 344 345 345 346 342 341 344 344 345 341 344 344 345 343 342 341 340 340 341 341 341 341 340 340 339 338 338 337 337 336 335 334 334 332 331 330 330
288 289 289 288 287 287 287 287 288 289 289 290 291 292 293 294 294 296 296 297 297 297 299 298 298 299 300 301 302 302 304 307 309 312 317 323 328 328 328 327 328 323 323 325 330 334 337 340 342 344 343 345 344 342 344 344 342 342 343 344 342 342 341 341 340 341 342 342 341 341 340 339 339 338 338 337 336 335 335 334 332 331 330 330 329
288 287 287 286 286 286 286 286 287 288 288 289 289 290 291 292 293 294 295 295 295 296 297 297 297 298 299 300 300 301 302 303 306 308 311 316 323 327 328 327 327 327 327 323 324 327 332 336 339 341 341 343 343 343 344 346 342 343 343 343 341 342 346 342 342 342 343 342 341 340 340 339 339 338 338 337 336 335 334 333 333 332 331 329 330
286 286 285 285 285 285 285 286 287 287 287 287 287 288 289 290 292 292 293 294 295 295 296 296 296 297 298 299 299 300 300 301 303 305 308 312 318 324 327 327 326 326 326 326 319 320 325 331 336 339 341 341 342 343 343 342 342 344 344 343 341 341 346 342 344 343 341 340 340 340 339 338 338 338 337 336 335 335 334 333 332 331 330 329 328
285 285 284 284 284 284 285 285 286 286 286 286 287 286 287 288 291 292 292 293 294 294 295 295 296 296 297 298 298 299 299 300 301 303 306 309 313 319 324 326 326 326 321 325 326 322 319 324 330 334 337 339 341 342 343 340 342 341 343 343 343 343 344 344 344 343 342 339 339 339 338 337 338 338 337 336 335 335 334 333 332 330 329 329 329
284 284 283 283 283 283 283 284 284 284 284 284 285 286 285 286 287 291 292 292 293 293 294 295 295 296 296 297 297 298 298 299 300 301 304 306 309 313 320 325 325 318 324 324 325 325 321 320 324 327 329 334 338 340 342 341 343 344 342 343 345 343 342 342 340 340 339 339 338 338 338 337 337 337 336 335 335 334 332 332 331 330 329 329 329
283 283 282 283 283 282 282 282 283 283 283 283 283 284 285 285 285 287 289 291 292 293 293 294 295 295 296 296 297 298 298 299 300 300 301 302 304 309 314 321 326 325 325 325 325 325 325 323 320 321 321 326 334 339 340 339 340 343 343 343 345 343 343 341 341 340 340 339 338 338 337 337 337 336 336 335 334 333 332 331 330 329 328 328 328
283 283 282 282 281 281 281 281 282 282 281 282 282 283 284 284 284 284 285 287 289 292 293 294 294 295 295 296 297 297 298 299 299 299 299 301 303 306 311 317 323 326 325 325 325 325 325 325 325 325 325 321 330 336 338 338 336 342 343 339 340 343 342 341 340 338 338 338 337 338 337 337 336 336 335 334 333 332 331 330 330 329 329 329 328
282 282 281 281 281 281 281 281 281 281 281 281 282 282 283 283 283 284 284 286 288 291 293 293 294 294 295 296 296 297 297 297 298 298 299 300 303 306 309 313 317 323 325 326 325 325 325 326 324 326 326 324 323 327 333 334 335 339 341 343 343 342 343 340 339 338 338 338 338 337 337 336 336 336 335 334 333 332 331 330 329 328 329 329 328
282 281 281 281 281 280 280 280 280 281 281 281 282 283 284 284 284 284 284 284 286 290 293 294 293 292 294 294 294 295 296 296 296 297 298 299 301 304 308 311 315 320 323 326 326 325 325 326 326 326 326 326 324 321 324 328 328 334 340 340 341 340 344 342 341 338 338 337 337 336 336 335 336 335 334 332 332 332 331 329 330 329 329 329 328
281 281 281 280 279 279 279 279 280 280 281 282 283 284 282 282 282 282 285 285 286 290 293 294 291 290 289 290 291 293 294 294 294 295 296 297 299 301 305 309 313 318 322 324 324 325 326 326 326 326 326 325 325 327 326 325 326 331 338 340 339 342 343 343 342 340 338 337 336 336 335 335 335 334 333 332 331 331 330 329 329 329 330 329 328
280 281 280 280 279 279 279 279 279 281 280 280 280 279 280 280 281 282 283 286 287 290 292 294 290 291 291 290 287 287 290 291 294 295 297 298 300 303 306 309 313 317 321 323 323 324 325 325 326 326 326 325 325 325 326 322 326 321 328 334 337 340 342 344 343 342 338 337 336 335 335 335 334 334 333 332 331 330 329 330 329 330 329 328 328
279 279 280 279 279 279 279 279 279 280 279 278 278 278 279 280 280 282 285 285 287 288 292 293 293 292 286 287 287 287 284 286 289 293 298 299 302 307 312 314 316 318 321 322 322 323 324 325 325 326 326 325 325 325 325 326 321 314 315 322 327 336 343 339 343 342 340 339 336 335 335 334 334 334 333 332 331 329 330 330 329 328 329 328 328
279 279 279 279 279 279 279 279 278 278 279 278 278 278 279 279 280 280 281 282 283 286 289 291 292 294 291 288 285 284 284 286 289 290 293 294 297 301 303 304 312 319 320 322 323 323 324 324 325 326 326 325 325 325 325 325 325 319 320 312 317 326 333 339 340 341 340 340 336 336 335 334 333 333 333 331 331 330 330 330 329 329 329 329 328
279 279 278 279 278 278 278 278 278 278 278 278 278 279 279 279 279 279 279 281 282 283 284 288 291 293 293 293 291 287 286 287 288 283 291 293 294 295 295 299 304 310 318 321 322 322 322 323 324 325 326 326 326 325 325 325 322 325 325 325 316 323 328 333 340 341 342 339 338 336 337 335 333 332 332 332 331 330 330 329 329 330 330 328 328
278 278 278 278 278 278 278 278 278 278 279 278 278 278 278 279 280 280 280 281 282 281 282 284 287 289 292 293 293 293 292 289 285 287 285 290 293 294 296 299 300 301 303 309 319 321 322 322 323 324 325 326 326 325 325 325 320 320 316 318 319 320 324 326 331 338 341 338 337 336 335 335 333 333 332 331 331 331 330 329 329 330 329 328 328
278 278 278 278 278 278 278 277 277 277 278 278 277 278 279 280 280 281 281 281 281 280 281 284 284 285 289 290 291 292 292 292 292 289 288 286 288 293 294 295 298 301 302 304 308 318 321 322 323 323 324 325 326 326 326 325 325 324 320 316 319 320 322 324 326 329 333 335 336 335 337 335 335 334 331 331 331 330 329 329 330 329 330 328 327
278 277 277 277 278 277 277 277 277 277 278 278 278 278 278 279 279 279 279 279 279 280 281 282 284 284 286 287 289 290 291 292 292 293 290 288 288 289 289 293 296 298 300 303 307 312 319 322 322 322 322 323 325 325 325 325 325 325 320 316 318 320 322 324 324 326 327 327 331 333 335 335 335 333 332 332 331 330 329 329 330 330 330 330 329
277 277 277 277 277 277 277 277 276 277 278 277 277 277 277 278 279 279 279 279 280 280 280 281 283 284 286 286 286 286 288 290 292 292 292 292 288 288 289 289 289 292 298 300 302 306 312 320 321 321 322 323 324 324 325 324 324 324 322 315 316 319 321 323 325 324 323 324 325 327 331 332 333 333 333 332 331 330 330 330 330 330 330 330 329
276 276 276 276 276 277 277 276 277 277 277 276 276 276 277 277 278 279 279 279 280 280 281 283 283 284 285 285 285 286 286 287 290 291 290 289 288 288 289 290 290 291 294 298 302 305 308 314 320 321 322 323 324 324 325 325 317 319 316 315 316 318 321 323 323 323 322 323 322 323 325 326 328 330 331 332 331 331 331 331 330 330 330 329 330
275 275 275 276 276 276 276 276 276 276 276 276 276 276 276 277 277 278 278 279 279 278 279 280 282 283 285 287 288 289 288 288 290 291 290 289 289 288 288 289 291 293 296 297 299 300 303 307 316 321 321 322 323 324 324 324 322 313 315 313 316 318 321 323 322 321 321 321 321 323 324 324 324 325 328 330 331 332 332 331 330 330 330 330 329
274 274 275 275 275 275 275 275 275 276 276 276 276 276 276 276 276 277 278 277 277 277 278 280 282 283 284 285 286 287 287 290 291 291 292 291 289 287 289 290 288 290 293 295 295 298 301 304 313 320 321 322 322 323 323 323 322 313 311 313 314 316 318 321 321 321 320 319 319 322 322 322 322 324 327 328 330 331 331 331 331 331 330 330 330
274 274 274 275 275 275 276 275 276 276 276 276 276 276 276 276 276 276 276 276 276 277 278 281 283 283 284 284 285 286 288 290 291 292 292 290 288 288 288 289 290 289 292 293 295 295 297 304 310 318 319 320 321 321 320 320 320 307 308 315 314 314 317 320 320 319 319 319 319 319 319 319 321 322 324 328 329 329 331 331 331 331 331 330 331
274 274 275 275 275 275 275 275 275 276 276 276 276 276 276 276 276 276 276 276 276 277 278 279 279 280 282 282 283 284 286 288 290 291 293 292 290 290 288 286 287 289 289 291 293 294 295 298 305 313 317 318 319 319 318 318 312 305 306 318 318 311 314 317 318 318 317 317 317 316 316 317 318 321 322 324 327 328 329 330 330 331 330 330 330
274 274 274 275 274 275 275 275 275 275 275 275 275 275 275 275 275 275 275 276 276 277 278 279 279 281 281 282 282 283 285 287 290 292 293 293 292 291 290 289 287 285 288 288 290 291 297 297 301 308 315 316 318 317 312 314 316 306 303 320 318 314 312 315 317 318 317 316 316 315 315 316 317 319 320 320 322 323 325 325 326 326 324 324 323
274 275 274 274 275 275 275 275 275 275 275 275 275 274 274 274 274 274 274 275 276 276 277 277 278 279 280 281 281 282 284 286 288 291 292 291 292 292 292 290 290 287 285 285 287 289 293 299 298 305 316 317 316 317 316 317 312 309 311 317 319 318 312 313 316 317 317 317 316 315 315 315 316 317 318 319 320 320 321 321 320 320 321 322 323
274 274 274 274 274 275 274 274 275 275 275 275 274 274 274 274 274 274 274 275 274 274 275 276 277 279 280 281 281 282 284 285 286 291 292 291 291 292 293 293 293 290 289 286 287 291 292 296 300 303 313 316 317 317 316 315 307 309 315 317 318 318 310 311 314 316 316 315 316 316 315 315 315 316 316 316 317 319 320 320 319 320 321 323 325
273 273 273 273 274 274 274 274 274 274 274 274 274 274 274 273 274 274 274 274 274 274 275 277 278 278 278 279 280 281 283 284 286 290 292 291 292 292 293 294 293 293 291 290 287 291 295 293 297 303 310 315 316 316 316 315 309 310 317 318 318 311 307 311 310 314 314 314 315 315 315 314 315 315 315 315 318 318 319 319 318 319 320 321 324
272 272 272 273 273 273 273 274 274 274 274 274 274 274 273 273 273 273 273 274 273 273 274 276 276 276 275 275 277 278 281 283 284 288 291 291 291 292 292 293 293 294 294 292 290 289 294 295 297 299 304 313 314 314 314 313 309 303 317 317 317 305 311 315 310 312 312 313 314 314 314 314 315 315 314 315 316 318 318 317 317 318 319 320 323
271 271 271 272 272 273 273 273 273 273 273 273 273 273 273 272 272 272 273 273 273 273 274 274 274 274 274 274 276 279 282 282 283 286 290 292 292 292 292 292 292 293 293 292 290 290 293 297 297 298 301 307 312 315 312 310 309 312 311 316 313 313 315 315 314 308 310 312 313 313 314 314 314 314 314 314 315 316 316 317 316 316 318 320 321
271 271 271 271 272 272 273 273 273 273 272 272 272 272 272 271 271 272 272 272 272 273 273 273 272 273 274 276 278 279 280 281 282 284 288 291 291 291 291 292 292 292 294 292 291 291 290 294 296 299 300 304 309 313 312 309 309 310 314 314 313 314 315 315 314 313 308 310 312 312 313 314 314 314 313 313 314 316 316 316 315 315 317 318 318
270 271 271 271 271 272 272 272 272 271 271 271 272 272 271 271 270 270 271 272 272 272 272 272 272 272 273 274 274 275 278 280 281 284 288 290 291 290 290 291 291 292 293 294 292 291 291 292 295 296 298 302 306 311 312 311 311 313 313 312 312 314 314 314 314 313 308 310 312 312 313 313 313 313 313 313 314 314 314 315 315 314 315 316 317
269 270 270 270 271 271 271 271 270 270 270 270 270 271 271 270 270 270 271 271 271 271 271 271 271 271 272 272 272 274 276 278 281 283 287 290 290 290 290 291 291 292 293 294 294 293 293 292 294 296 298 301 306 312 311 311 312 313 313 313 313 314 313 313 314 313 310 310 311 311 312 312 312 313 312 313 313 313 314 313 313 313 313 313 314
269 269 269 270 269 269 269 269 268 268 268 268 268 269 270 270 270 270 270 271 271 271 271 271 272 271 271 272 272 274 277 279 279 280 283 287 290 290 290 291 291 292 292 293 293 294 293 292 293 297 300 302 307 311 310 309 310 310 310 311 312 312 312 312 313 313 307 308 308 309 310 311 311 312 312 313 313 313 313 313 312 312 311 312 312
267 267 267 267 268 267 267 267 267 267 267 267 267 268 268 269 269 269 270 270 270 270 271 271 271 271 271 271 271 273 274 275 278 280 282 285 289 289 290 290 291 291 292 292 293 293 293 293 294 294 299 300 302 307 310 310 308 306 306 309 311 311 310 309 310 311 311 312 312 312 308 309 309 310 311 312 312 312 312 312 311 311 309 309 310
265 265 265 265 266 266 266 266 266 266 266 266 266 267 267 267 268 268 269 269 269 270 270 270 271 271 271 271 271 273 274 275 276 277 278 282 287 289 289 290 290 291 290 291 292 292 292 292 293 296 297 300 304 303 307 310 309 308 306 305 306 307 308 309 307 308 310 311 309 308 310 310 309 311 309 310 311 311 311 311 310 309 307 308 309
263 264 264 264 264 265 265 265 265 265 265 265 266 266 267 267 268 268 268 269 269 269 270 270 271 271 271 271 272 273 274 275 277 278 280 281 285 287 289 290 290 289 289 290 291 291 291 292 293 294 297 298 301 304 306 307 306 305 307 306 303 304 305 307 308 307 309 310 310 309 307 308 307 309 307 309 309 310 309 309 308 307 305 308 309
263 263 263 263 263 263 263 264 264 264 265 265 266 266 266 267 268 268 268 269 269 269 269 270 270 271 271 271 272 272 274 277 280 281 283 285 287 287 288 288 287 287 287 286 286 287 290 292 292 295 297 298 300 301 302 303 304 303 304 306 305 305 306 305 306 308 308 309 308 309 309 310 309 310 310 310 311 308 308 307 306 303 305 308 308
261 262 262 262 262 262 262 263 264 264 265 265 267 271 272 270 270 270 270 270 269 269 269 269 270 270 271 272 272 276 277 278 279 281 282 284 285 286 287 287 287 286 285 285 285 286 286 288 291 294 295 297 299 302 302 303 305 305 305 305 303 304 305 303 304 305 307 308 306 307 308 308 309 309 310 310 310 307 310 310 310 307 305 307 308
260 261 261 261 262 262 263 263 263 264 265 266 271 273 274 275 273 271 271 271 272 272 271 271 270 271 271 272 273 275 276 278 279 282 283 284 285 287 288 289 288 287 285 285 285 285 285 286 290 294 295 296 299 303 304 304 304 304 304 305 303 302 302 300 298 298 301 308 306 305 303 300 307 307 308 309 310 310 310 309 306 304 305 307 307
260 261 261 261 262 263 263 264 264 265 265 270 272 273 275 275 276 273 272 272 272 272 272 272 272 272 273 273 274 275 276 277 279 280 282 284 286 287 288 289 289 289 289 286 285 285 285 285 286 290 295 297 300 302 304 305 303 304 305 304 302 302 301 301 300 300 303 307 306 304 300 296 302 306 306 308 308 310 310 307 305 305 306 307 306
260 260 261 262 263 264 264 264 264 265 266 270 273 274 275 276 276 275 273 273 272 272 273 273 273 273 273 273 273 274 276 279 280 281 282 284 286 287 288 288 288 288 289 289 288 286 286 286 285 287 294 299 300 302 304 305 304 303 303 302 302 303 303 302 302 303 303 306 306 302 300 297 301 301 304 303 303 308 308 305 305 305 306 306 306
260 261 262 262 262 262 263 263 264 264 265 269 272 274 275 276 277 277 274 274 274 273 273 274 274 274 273 273 273 273 274 277 281 283 284 285 285 286 286 286 286 286 287 288 288 287 287 286 286 286 290 300 301 303 304 305 304 302 302 301 302 301 301 302 303 304 304 306 306 303 299 295 297 302 302 300 298 302 305 305 304 305 305 305 305
261 261 261 261 261 262 262 263 263 263 264 270 272 274 275 276 277 277 274 274 275 275 275 275 275 274 274 274 274 273 274 275 277 280 281 283 284 284 285 285 285 286 286 286 287 287 287 288 288 289 290 296 304 305 306 307 306 306 305 302 302 302 301 299 296 299 301 303 305 303 299 296 295 301 301 297 296 300 302 304 304 304 305 305 305
261 261 261 262 261 262 262 262 262 262 263 270 272 273 274 276 277 274 274 275 275 275 275 275 275 275 275 275 274 274 275 275 279 282 283 282 281 281 282 284 285 286 286 287 288 289 288 288 289 291 294 296 301 304 303 307 307 306 303 302 301 299 297 298 297 298 299 300 302 303 300 296 294 300 296 295 297 298 297 302 303 304 305 305 305
260 260 260 261 261 261 261 261 261 262 263 267 272 273 274 276 275 273 274 275 275 275 275 275 275 275 275 275 275 275 275 276 279 281 282 283 281 281 281 282 283 284 285 287 288 289 289 289 290 291 292 295 299 303 303 304 303 302 301 299 297 298 299 297 296 297 299 299 297 301 300 296 294 298 294 294 297 298 298 301 303 304 305 305 304
259 259 260 260 260 261 261 261 261 262 264 267 272 273 274 275 275 273 273 273 274 275 275 275 275 275 275 278 278 276 276 277 280 282 284 283 281 282 282 282 283 283 284 286 287 288 289 289 290 291 292 294 297 301 302 303 301 300 301 299 298 300 298 297 295 297 298 298 297 297 298 296 294 295 293 291 293 294 298 298 300 302 303 303 304
259 260 260 259 260 260 261 261 265 264 264 266 271 272 273 275 274 273 273 273 272 272 274 275 275 276 276 277 279 279 279 280 283 284 284 284 282 282 282 282 282 282 284 286 286 286 286 287 289 294 294 295 298 302 301 300 299 300 304 302 301 301 299 297 296 296 296 296 297 296 298 294 294 294 295 293 295 290 290 294 297 300 301 302 303
Wind_Speed
4 5 5 6 6 7 7 7 6 7 7 7 7 8 8 8 8 8 8 9 8 9 9 9 8 8 8 10 10 10 10 11 11 11 11 10 10 13 19 20 22 23 21 24 28 29 30 30 29 30 31 30 28 30 32 29 29 28 24 23 29 29 29 27 26 27 27 26 26 26 26 27 27 26 26 26 24 25 24 24 24 23 22 22 21
5 5 5 5 5 6 7 7 8 7 7 8 7 7 8 9 9 8 8 8 9 9 8 9 9 8 8 9 9 10 10 10 11 11 12 13 12 12 19 20 22 22 21 24 27 30 30 29 29 30 28 29 30 28 32 29 29 29 29 28 30 28 31 27 25 27 27 27 26 26 27 26 25 26 26 25 25 25 25 25 24 24 23 23 23
6 6 5 5 5 6 7 7 8 8 8 8 8 8 8 8 9 9 9 9 8 8 9 9 9 9 8 9 9 9 10 10 11 12 12 12 12 10 13 20 21 22 22 22 25 28 29 30 31 29 29 29 30 31 28 32 29 28 29 30 29 28 27 26 28 27 26 26 26 26 27 27 26 26 26 25 25 25 25 24 24 23 24 24 23
4 4 5 6 6 7 7 7 7 8 9 10 11 10 9 9 9 8 8 9 9 8 7 8 9 9 9 10 9 9 9 10 11 11 12 12 12 11 11 13 20 22 23 23 25 28 27 29 30 29 31 28 32 33 31 31 30 31 26 27 26 30 30 28 25 27 28 28 27 27 27 27 26 26 25 25 25 25 24 23 22 24 24 23 23
5 5 6 6 6 6 6 6 6 7 8 10 12 11 10 10 10 9 9 8 9 9 7 8 9 9 9 10 9 10 9 9 10 10 12 12 12 13 12 11 13 19 23 23 24 25 28 28 29 30 32 27 32 33 30 30 30 32 29 28 29 35 30 28 29 27 28 28 28 29 28 28 27 26 25 25 25 25 24 23 25 25 24 22 23
6 6 6 6 7 6 7 7 7 7 8 8 9 9 10 11 11 11 10 9 9 9 8 9 8 8 8 9 9 10 9 10 10 10 11 12 12 12 13 12 11 12 14 21 23 23 25 25 28 30 30 29 30 32 33 30 33 32 33 28 30 34 34 32 33 31 29 31 29 31 29 28 27 26 25 25 25 25 24 25 25 24 24 24 24
5 5 5 5 5 6 6 7 8 8 8 7 8 8 9 11 10 11 11 11 10 10 9 10 10 10 9 8 9 10 10 11 11 11 11 11 11 12 13 12 11 12 13 12 15 22 24 25 26 28 29 30 33 33 30 29 32 31 31 29 32 36 32 37 35 34 31 33 30 29 28 29 27 27 26 25 25 25 26 25 23 23 23 24 25
4 4 4 4 5 5 6 6 8 8 8 8 8 9 9 10 10 10 12 12 11 13 9 11 10 11 9 9 9 9 11 11 12 12 11 10 11 12 13 13 13 12 13 12 11 13 22 25 26 27 27 26 27 31 32 34 32 34 33 34 31 32 31 32 31 31 33 34 30 28 29 29 27 26 26 27 26 26 25 24 24 25 25 25 25
4 4 4 4 5 5 6 6 7 7 7 8 8 8 9 10 11 10 11 13 12 13 12 10 11 12 11 11 11 10 10 11 12 12 11 12 12 13 13 14 15 16 13 13 12 12 16 22 25 27 27 28 28 30 32 31 33 32 32 32 30 30 33 31 33 31 31 31 30 29 30 29 27 27 29 29 27 26 26 25 24 26 26 26 25
4 5 5 5 5 5 6 6 7 7 7 7 7 7 8 9 11 10 12 13 13 12 12 11 11 12 13 13 12 11 12 11 11 12 12 14 13 13 13 13 13 13 13 14 14 13 12 16 23 26 28 27 29 30 33 28 32 34 32 33 31 33 30 35 35 33 32 31 30 29 25 29 29 29 31 28 27 27 27 26 27 27 27 27 26
5 6 6 7 7 7 7 8 7 7 7 7 7 7 7 8 11 13 11 13 14 14 12 11 12 13 14 15 13 14 12 12 11 12 13 14 14 14 12 13 13 14 14 15 14 14 13 12 11 12 18 30 31 29 30 29 34 32 33 30 32 29 32 31 31 29 32 31 30 28 29 28 30 29 30 29 27 27 26 27 28 28 28 27 27
4 5 5 6 7 7 8 9 9 9 10 11 10 8 10 11 11 12 14 13 12 12 11 11 12 14 15 15 14 14 15 14 14 14 13 14 14 12 12 13 13 14 15 14 14 14 14 13 12 12 13 19 29 30 30 28 28 28 29 31 30 30 32 34 35 32 31 33 32 32 30 34 30 30 31 29 28 28 28 29 30 29 28 28 28
5 5 7 7 6 7 8 8 8 8 8 9 9 10 9 10 11 11 13 14 12 9 10 9 12 14 11 13 15 13 14 14 15 15 15 15 14 14 13 13 14 14 14 14 15 14 14 13 13 12 13 12 16 25 27 27 27 29 30 30 31 32 31 36 37 35 28 33 33 33 31 32 31 31 32 32 30 30 30 31 29 30 29 29 29
5 5 6 6 7 7 7 7 7 8 8 8 8 9 12 11 11 13 9 12 13 8 9 8 11 11 13 12 13 13 12 14 16 17 17 15 15 15 14 15 15 15 14 14 15 15 14 13 13 13 13 13 13 13 16 18 22 28 28 31 31 32 31 35 38 39 31 33 32 35 32 33 34 31 31 32 32 32 33 32 30 30 30 30 28
6 6 5 5 6 6 6 6 6 7 8 8 8 10 8 11 11 11 13 9 10 8 9 8 12 10 10 13 15 13 11 9 10 12 13 14 13 14 15 16 18 16 14 13 14 14 14 14 14 14 14 14 13 13 14 16 17 23 26 26 28 31 31 36 42 39 36 33 34 37 34 37 33 32 33 34 32 34 34 32 33 31 31 29 29
4 5 5 6 6 7 7 6 7 7 8 10 9 9 9 9 10 12 12 15 10 9 7 9 9 9 11 8 11 9 16 13 7 6 7 10 11 11 11 13 15 16 13 15 15 14 14 14 16 16 16 15 14 13 14 14 21 22 24 25 27 27 26 32 42 40 39 35 34 36 36 35 34 33 34 33 34 34 32 34 32 34 31 31 30
5 5 5 5 5 6 7 7 7 8 7 9 9 9 9 9 10 12 13 13 17 14 12 10 12 10 12 11 11 11 13 15 9 13 10 9 10 9 8 11 12 13 13 15 15 15 15 15 15 15 16 16 15 14 14 15 16 16 20 24 26 26 26 28 40 40 39 39 37 38 35 35 35 35 36 34 34 34 34 33 34 33 34 32 31
4 5 5 5 6 6 7 7 7 7 7 8 9 9 8 9 8 9 13 13 14 16 17 11 12 13 15 15 13 12 11 8 10 16 9 8 13 15 17 16 13 10 9 13 17 15 15 15 15 15 15 15 15 15 14 15 15 14 15 18 27 25 27 30 41 44 41 44 38 40 38 38 38 38 34 33 33 34 34 33 32 33 32 32 31
6 5 6 6 6 7 7 7 7 7 7 8 9 10 9 8 8 9 10 12 13 15 18 15 11 13 14 15 16 16 15 12 14 12 18 14 10 9 11 10 8 10 9 8 12 16 15 14 16 16 16 14 14 15 14 15 18 18 21 23 26 26 26 27 36 41 42 42 44 49 44 44 39 37 34 34 36 36 35 34 34 33 33 33 32
7 6 7 7 7 8 7 8 8 7 7 8 9 10 10 9 8 10 11 12 14 14 16 15 13 12 10 13 15 16 17 18 18 17 17 18 21 11 11 15 12 10 10 9 10 12 16 15 16 16 14 16 15 14 15 15 14 16 16 24 25 28 29 28 31 41 41 42 45 44 43 45 42 39 36 33 35 37 38 35 36 36 33 34 34
6 7 7 7 7 8 8 8 8 8 7 9 9 10 13 13 10 9 9 12 13 15 16 16 14 13 11 12 14 14 14 14 16 16 15 15 19 18 15 11 9 11 10 9 8 9 13 17 16 17 15 14 15 15 14 14 14 15 17 24 26 26 28 30 33 39 48 46 42 42 43 45 42 40 37 37 37 37 39 36 34 34 34 32 32
6 7 8 7 8 8 8 8 9 9 8 9 10 12 11 11 12 12 13 15 13 14 16 15 15 14 12 11 12 13 14 15 15 15 17 20 17 16 10 14 17 14 9 9 9 10 12 15 17 17 16 15 15 15 15 16 15 15 18 24 26 27 27 29 30 25 33 42 38 38 41 43 40 41 39 37 39 40 38 35 35 35 34 34 34
7 7 7 8 8 9 9 9 9 9 9 9 10 10 10 11 13 15 17 16 14 14 17 16 15 14 14 12 13 13 13 14 14 12 12 10 10 15 12 11 13 18 17 11 10 10 11 14 17 17 17 16 15 15 16 16 19 20 24 24 26 27 28 28 26 27 24 36 43 34 33 35 37 37 39 40 41 42 38 37 36 37 36 34 34
8 8 8 7 8 8 8 10 9 9 10 9 10 10 10 11 13 13 14 15 15 16 16 18 17 13 13 11 12 13 14 15 17 15 12 12 11 14 12 8 11 13 13 12 10 12 12 14 16 17 17 16 15 15 16 16 17 26 22 25 27 29 32 32 32 31 34 25 32 43 38 34 32 33 34 38 40 38 38 38 38 37 37 36 37
9 8 9 8 8 9 9 9 10 9 10 10 10 11 11 11 12 15 15 16 16 16 16 17 16 12 10 10 12 12 15 14 16 17 14 12 10 13 13 8 12 14 12 8 10 8 10 12 14 16 16 16 15 15 14 15 14 20 25 22 31 29 31 32 34 46 43 40 34 34 40 37 35 34 34 35 37 38 40 39 37 35 35 35 35
11 10 9 9 8 9 10 11 11 11 11 11 11 11 11 12 13 15 17 15 14 17 18 17 13 12 10 11 11 13 13 14 16 16 15 12 11 13 13 9 9 13 11 9 10 9 10 7 11 12 14 15 14 13 11 11 12 20 26 18 25 29 29 29 26 27 42 46 37 31 33 35 36 35 34 35 35 36 37 39 38 38 35 35 35
10 11 11 10 11 10 11 12 11 11 11 11 11 11 11 11 13 13 16 13 16 17 16 16 16 16 16 14 13 14 14 15 16 16 15 14 11 10 9 12 12 11 13 10 12 12 15 12 11 12 9 12 12 12 11 10 7 17 24 17 18 31 33 35 33 28 21 28 34 31 30 31 32 33 33 32 33 32 34 36 36 36 37 35 33
10 11 11 11 12 12 12 12 12 12 12 12 12 11 11 12 13 13 16 13 16 17 15 15 17 16 15 13 12 14 12 13 16 16 15 13 10 9 8 10 14 15 9 12 10 13 12 10 11 13 12 9 12 12 14 14 11 11 12 19 18 22 33 37 37 33 29 23 24 28 29 29 30 31 31 30 29 28 30 33 33 33 30 29 27
12 11 13 12 12 12 13 13 12 12 12 12 12 12 12 13 13 16 16 15 17 17 15 14 15 14 13 17 14 14 14 14 16 16 13 12 10 9 9 11 10 13 12 10 13 11 13 6 8 11 13 12 8 9 13 12 14 17 5 7 22 21 27 32 33 35 33 31 28 26 27 28 29 30 29 29 27 27 28 28 28 27 26 27 27
12 12 13 14 13 13 13 13 13 12 13 12 12 13 13 13 15 15 17 14 17 16 17 19 20 15 14 13 13 11 13 12 16 17 13 12 11 9 10 10 10 13 11 13 15 9 12 8 8 11 10 14 10 10 11 12 19 20 13 8 12 21 35 32 32 33 33 33 32 31 29 28 29 29 28 27 27 27 27 26 26 27 27 25 25
12 13 13 14 13 13 13 13 13 14 13 14 13 13 13 14 16 14 15 14 17 17 16 15 11 11 13 14 12 12 12 14 16 17 14 12 11 10 10 11 12 13 12 10 14 13 6 13 10 11 11 12 12 11 11 13 19 21 20 17 14 19 34 35 39 35 33 32 31 30 30 30 30 29 28 27 27 28 26 26 26 25 28 26 24
12 13 14 14 14 15 13 14 15 14 16 14 16 13 16 15 14 16 13 17 17 18 17 15 12 14 15 18 17 15 13 13 14 16 15 12 11 11 10 11 12 12 11 11 14 20 8 10 11 11 13 12 13 15 12 13 22 24 14 18 22 27 20 19 35 44 42 37 36 32 31 30 30 29 29 27 27 27 27 26 25 26 26 25 25
12 15 14 15 15 15 17 15 17 15 16 17 15 14 15 15 15 15 17 16 19 17 17 18 14 16 18 19 19 17 12 13 14 14 14 13 12 11 11 11 12 11 11 10 16 17 15 9 11 11 14 14 12 16 15 11 14 20 18 15 17 19 20 17 19 30 37 41 36 35 33 31 29 28 29 28 27 27 25 24 26 26 25 26 27
13 14 15 14 14 16 16 19 14 17 16 19 14 17 15 18 17 15 15 17 18 19 17 19 17 14 16 18 17 14 11 13 14 15 15 13 10 10 11 11 12 11 11 12 14 14 19 11 9 11 13 16 15 15 18 17 15 10 15 15 18 19 19 19 18 20 30 29 33 34 33 31 29 28 28 27 27 27 25 24 26 26 25 26 26
12 12 13 15 16 17 17 18 19 15 18 17 17 15 18 18 18 16 16 17 18 18 19 19 19 17 18 17 16 15 12 14 15 14 15 14 10 10 12 11 12 13 12 14 13 15 17 17 10 12 12 14 15 13 17 18 20 20 18 16 18 16 15 18 17 17 26 27 29 29 30 29 28 27 26 27 28 28 26 25 26 25 24 24 24
13 13 14 16 17 17 17 19 18 18 17 16 17 16 18 19 18 18 17 18 18 19 20 19 19 17 18 18 17 15 17 17 16 13 13 13 11 10 12 12 12 14 13 13 15 13 13 15 13 9 13 13 14 13 13 17 20 19 21 19 20 21 20 18 18 17 23 30 29 29 30 29 28 27 26 27 28 28 26 25 25 25 24 23 23
14 14 15 15 16 16 16 17 19 18 18 17 18 18 18 18 18 18 18 18 18 19 19 19 18 18 18 18 17 15 15 14 14 13 12 15 11 11 10 9 11 12 12 13 13 13 15 15 15 10 12 13 12 13 14 17 17 15 15 19 20 20 20 19 18 19 27 30 29 29 28 28 28 27 26 26 26 27 27 25 25 25 24 24 23
16 15 15 15 14 17 17 18 18 19 18 18 19 19 18 17 17 17 17 17 18 18 18 19 18 18 18 19 18 17 16 17 15 12 14 15 12 11 11 11 11 11 13 14 13 14 15 16 15 12 12 13 12 12 15 19 17 13 13 17 18 19 20 18 15 15 15 16 16 19 23 25 27 28 27 25 26 27 25 24 24 24 24 24 24
15 16 15 16 15 16 18 18 18 19 20 18 18 18 18 18 18 18 18 18 18 17 17 18 18 19 19 18 18 18 18 17 17 16 16 18 14 11 11 11 11 12 14 13 12 13 14 15 14 14 13 13 12 12 14 19 19 19 17 14 17 14 15 19 17 14 13 16 18 23 21 21 25 23 25 25 25 26 26 24 24 25 25 25 25
14 15 16 16 17 16 17 18 18 18 19 19 19 19 18 18 17 17 17 17 17 17 18 18 18 18 18 19 18 18 18 18 17 16 17 17 14 13 11 11 10 8 8 9 10 12 13 13 14 13 14 14 11 11 12 16 17 15 17 19 19 18 15 15 18 19 17 18 14 12 15 18 19 22 24 24 24 24 25 24 25 24 26 26 26
13 14 15 16 18 19 19 18 19 18 18 17 15 15 16 17 17 17 17 17 17 17 17 18 18 19 18 18 18 19 20 25 28 23 21 19 13 12 12 10 10 10 10 9 7 8 9 11 14 13 13 14 14 11 13 17 20 17 14 15 19 21 19 17 16 16 16 18 17 15 14 16 15 15 15 15 17 22 23 24 21 25 25 25 25
12 13 14 15 16 18 19 19 18 17 16 14 19 28 25 19 17 16 15 16 17 16 17 17 17 17 18 17 18 27 28 29 30 30 29 30 30 21 12 8 9 9 9 8 8 7 8 11 14 14 14 15 14 15 13 15 18 18 20 18 17 16 17 15 13 12 15 15 15 15 13 12 14 13 14 13 15 17 12 16 15 18 22 26 27
12 13 13 14 15 16 19 18 18 16 16 15 27 27 28 31 23 18 18 17 17 16 14 14 15 14 15 16 16 21 24 25 23 28 28 30 29 28 27 23 16 13 10 9 9 8 8 10 12 12 14 16 16 15 18 15 17 20 18 17 17 15 18 18 15 7 8 18 16 15 12 8 14 15 13 14 14 14 14 13 21 23 26 26 26
12 12 13 14 15 16 15 17 18 18 18 23 29 28 29 30 27 19 17 16 15 14 17 16 16 17 17 16 16 14 14 17 17 18 23 28 28 27 26 26 26 24 21 13 11 10 9 10 12 14 13 16 16 16 18 19 17 18 19 19 19 19 18 19 17 19 15 18 18 16 13 6 10 14 13 12 14 14 14 17 23 24 27 28 27
13 14 14 14 14 15 16 19 18 18 18 24 28 29 29 30 30 26 17 17 16 16 16 17 17 16 17 14 17 14 14 23 19 17 16 16 20 24 25 26 28 26 25 26 22 14 10 11 12 15 16 15 17 19 19 21 20 18 17 18 20 20 20 20 18 16 16 17 18 16 15 11 12 14 15 11 11 12 14 19 25 25 26 27 28
12 12 13 15 16 16 16 18 18 18 19 24 30 30 30 31 30 27 17 18 17 16 18 16 18 15 19 13 16 14 15 17 15 13 13 12 11 9 11 11 11 15 21 23 23 22 17 13 13 16 18 17 18 19 21 22 25 22 19 19 21 21 21 21 19 18 18 18 22 17 13 9 9 13 14 10 8 11 11 19 26 26 25 24 26
12 13 14 14 14 15 16 16 17 18 18 29 30 32 31 31 30 27 17 15 14 13 13 15 16 16 18 15 17 16 17 17 17 18 15 13 12 12 13 13 13 12 11 11 12 11 10 13 14 17 19 20 20 21 21 22 27 25 25 26 27 25 19 11 9 10 15 13 16 17 17 11 7 13 12 10 8 10 9 18 26 27 26 25 23
11 12 12 13 15 15 16 16 17 18 19 30 31 31 32 30 32 18 14 14 14 13 15 17 14 17 14 16 15 16 17 17 21 25 20 14 13 15 14 14 13 12 13 13 15 14 14 14 15 17 17 20 25 20 23 24 24 23 18 13 12 13 16 16 16 14 16 11 13 18 15 13 7 12 8 6 9 9 6 11 23 28 29 29 28
12 12 12 13 12 14 15 15 16 17 16 25 30 31 31 31 24 15 15 12 11 12 15 14 13 15 15 16 16 16 17 17 22 26 26 23 15 16 16 16 15 14 15 12 16 20 23 24 27 31 35 36 34 30 29 35 25 20 16 16 16 17 19 20 16 16 17 15 10 14 15 15 10 11 10 6 10 10 9 10 13 25 30 30 29
12 12 12 12 12 12 14 16 16 17 17 24 32 31 31 29 24 17 14 14 13 12 13 12 11 11 15 25 22 17 17 17 23 27 26 20 15 14 14 15 16 16 16 12 10 12 18 23 28 33 36 34 36 32 32 31 31 27 25 24 22 21 20 19 16 16 15 15 12 9 13 15 10 8 10 5 4 3 8 8 11 16 26 26 28
11 11 11 12 12 12 13 15 23 23 17 21 30 30 29 27 22 14 12 12 12 12 12 12 11 11 12 16 23 22 19 19 26 25 26 21 14 13 13 13 15 17 15 11 11 12 13 13 16 18 18 24 26 23 23 32 35 31 27 27 24 24 24 23 21 17 14 12 13 13 17 12 14 11 14 10 11 1 2 6 10 11 12 13 17
Wind_Direction
355 346 338 343 339 339 338 335 332 328 329 325 323 320 319 317 314 310 313 312 310 311 312 310 307 306 302 302 301 300 298 295 289 271 259 252 244 245 240 239 249 249 241 244 247 247 246 240 236 233 238 231 215 213 220 218 211 208 210 208 207 207 201 197 186 186 180 179 177 176 174 172 170 168 169 167 164 165 168 168 167 167 166 164 161
348 344 350 340 337 335 336 335 333 331 331 325 323 317 314 314 310 307 305 304 305 305 307 306 306 303 301 297 297 297 295 296 292 282 264 257 248 242 242 240 241 247 242 241 245 248 249 243 234 236 232 236 230 217 216 218 212 209 206 210 208 203 198 192 195 192 183 180 178 176 174 172 168 171 171 167 166 167 170 170 171 169 167 162 162
354 347 347 343 341 342 340 336 334 334 331 323 322 318 310 303 304 304 303 300 296 297 300 300 300 303 300 295 294 295 296 295 294 292 283 262 253 247 246 246 243 243 244 240 242 246 247 247 242 234 228 231 234 223 220 221 220 218 209 207 204 213 206 203 195 187 186 182 177 175 174 173 172 171 170 167 167 168 170 170 171 166 166 161 162
351 348 352 349 346 346 338 338 334 332 333 329 323 318 311 304 297 293 291 293 293 289 286 290 294 295 297 295 294 291 291 294 293 293 289 278 266 258 249 247 248 244 243 240 240 243 245 243 244 240 235 226 231 228 216 221 221 221 212 211 209 203 202 197 199 192 188 183 178 176 176 173 173 172 171 169 168 168 170 172 170 167 167 162 161
0 3 359 353 343 336 335 331 328 330 328 324 321 318 315 312 306 299 293 287 287 289 284 279 284 287 291 292 295 289 288 288 287 289 289 286 271 260 251 245 248 249 244 240 237 239 241 242 241 237 237 228 230 230 218 218 219 221 216 217 211 206 206 198 192 188 190 185 182 177 175 173 174 171 172 170 169 169 170 167 168 169 168 164 162
9 3 354 347 341 336 332 328 328 327 324 322 320 318 311 311 310 311 304 299 294 287 288 285 280 280 280 289 289 290 291 285 283 283 285 283 282 269 260 246 241 247 249 242 237 236 237 240 242 241 237 233 232 233 226 217 219 217 217 220 217 211 198 197 191 188 187 186 185 180 174 171 171 171 172 171 170 169 169 170 172 173 172 170 165
6 357 341 336 331 327 326 326 326 326 322 322 318 316 312 308 308 303 301 301 297 291 289 284 286 284 280 280 282 291 289 285 283 281 278 280 277 273 265 257 245 243 248 248 240 233 236 236 240 241 237 231 231 234 229 224 223 222 220 213 219 216 198 199 192 187 188 188 185 180 173 170 169 170 172 173 171 171 171 172 171 170 171 173 172
354 346 338 333 330 327 324 325 328 325 323 319 318 314 315 309 305 303 301 293 296 296 292 290 288 284 281 276 277 280 285 285 282 278 277 276 275 273 265 257 248 242 242 246 243 236 229 233 235 238 238 232 228 232 228 223 220 220 220 220 216 217 202 191 191 191 189 189 185 179 173 172 171 167 167 171 172 173 171 169 169 170 169 171 173
347 344 346 333 331 329 324 325 326 324 318 316 313 313 312 308 304 300 292 294 291 285 290 291 291 288 286 278 275 277 272 278 283 280 279 271 270 269 269 260 252 242 240 243 244 242 233 228 231 233 236 235 232 230 231 225 224 222 221 222 218 212 205 199 194 190 192 189 183 177 174 172 172 168 170 172 172 172 171 170 168 173 173 174 174
344 344 340 336 333 328 326 324 322 318 314 309 306 305 304 307 306 307 306 299 291 288 286 288 288 290 286 282 279 273 271 270 274 281 274 270 265 261 261 264 256 247 241 240 243 240 238 230 227 229 231 234 233 231 229 222 220 222 219 220 221 220 210 199 197 193 187 183 181 177 172 175 172 171 172 171 171 172 172 171 171 174 175 174 173
341 343 344 340 338 334 331 329 326 322 319 313 311 309 308 305 302 298 290 287 287 287 287 286 285 283 282 281 280 273 271 268 268 270 271 265 263 259 258 258 257 250 242 238 239 241 237 233 226 226 230 230 233 231 229 223 227 222 222 219 220 220 218 206 197 193 188 183 181 176 171 174 173 170 172 171 169 168 170 171 173 175 174 175 177
335 338 338 338 337 336 333 333 333 331 327 325 321 321 314 308 296 293 293 285 276 280 284 286 281 277 278 280 275 274 269 267 265 261 264 264 260 257 253 251 251 250 243 239 236 237 237 234 227 225 227 228 228 230 230 225 223 218 219 219 216 219 219 200 199 194 188 187 183 180 174 176 172 170 172 170 169 169 171 174 176 175 175 175 177
336 342 342 338 336 330 331 330 326 319 312 305 304 302 302 302 300 292 291 291 283 271 274 281 285 283 274 275 279 269 267 266 264 263 258 261 257 255 251 249 247 246 243 237 235 233 233 232 230 226 224 226 225 226 226 224 221 224 219 219 216 217 215 203 195 194 187 185 183 179 175 176 173 171 170 171 170 172 173 177 175 175 175 178 178
332 337 334 333 328 328 322 313 313 302 293 292 297 302 304 300 300 295 278 285 290 287 282 289 275 278 300 297 282 278 271 265 259 255 253 252 253 249 246 244 243 242 240 237 233 231 229 228 227 226 223 222 223 220 222 226 220 218 219 219 213 213 213 207 197 191 185 183 179 178 175 175 175 173 167 167 171 174 178 177 175 176 178 177 176
328 326 323 318 315 313 306 300 292 297 301 297 295 296 296 299 296 292 298 274 273 279 273 251 274 281 281 294 287 309 289 264 254 256 255 249 249 246 244 241 239 237 237 233 232 229 228 224 225 223 222 221 220 220 218 217 218 215 216 215 215 215 214 204 195 191 185 182 178 178 176 176 175 170 169 170 172 177 177 176 177 178 178 176 177
299 304 308 311 309 303 299 296 297 299 299 300 301 298 302 304 304 297 296 299 292 283 267 265 263 276 274 248 283 290 296 275 305 281 275 286 278 273 272 256 244 236 232 229 229 227 225 224 222 222 222 221 218 218 218 218 215 213 212 211 210 212 210 207 195 192 185 182 178 176 177 176 172 171 168 169 173 177 176 176 176 177 177 178 176
278 273 274 278 278 280 287 290 292 292 292 292 294 294 296 291 293 293 291 291 294 292 287 274 264 255 267 278 276 266 256 286 322 285 278 266 261 268 272 290 282 253 229 228 226 223 223 222 223 222 221 219 219 217 217 217 216 213 212 212 210 204 207 208 203 193 187 183 179 175 174 173 175 173 171 174 174 177 178 178 176 176 177 177 176
264 269 262 275 279 276 277 281 281 285 288 287 286 288 285 284 282 285 286 284 285 291 285 277 279 265 247 252 256 266 284 287 317 290 285 256 285 279 274 269 260 284 272 238 225 221 218 219 217 219 217 215 215 215 215 216 214 211 210 211 210 204 199 205 203 195 190 184 178 177 174 173 175 174 170 171 176 178 177 177 176 176 176 176 175
286 280 285 286 288 287 284 280 279 280 286 288 291 289 288 280 279 276 279 285 282 279 280 285 277 267 269 254 253 258 265 276 270 290 283 286 240 262 275 267 274 279 281 285 256 228 219 216 217 218 216 215 213 213 213 215 211 211 207 207 206 205 202 201 204 200 193 186 181 180 174 175 173 171 171 175 178 179 176 176 176 177 176 175 175
282 283 282 287 288 287 285 288 289 285 287 287 292 295 290 281 269 269 277 277 280 277 281 277 275 278 273 275 258 254 253 254 253 259 276 284 287 262 260 269 266 255 265 269 275 259 232 219 219 216 216 214 214 214 214 212 212 212 210 208 204 204 203 204 208 200 194 185 179 175 173 173 171 171 172 176 177 179 175 175 176 177 175 175 175
271 279 278 276 283 287 289 289 289 293 292 291 292 295 294 291 285 277 273 274 268 270 271 271 274 272 275 273 280 269 257 248 251 248 253 272 265 275 288 277 256 263 264 261 265 273 256 233 221 219 216 215 212 214 215 214 211 211 211 205 205 204 203 206 210 216 187 179 174 171 172 171 170 170 174 175 178 176 174 174 177 178 176 174 174
278 273 278 279 284 287 288 290 293 291 289 287 291 291 290 287 284 279 275 273 266 262 261 266 267 269 265 273 274 280 274 258 246 247 247 242 259 272 275 290 297 286 272 273 282 284 280 252 228 219 218 216 212 212 214 214 212 211 210 203 202 201 202 202 205 203 199 169 167 170 170 173 170 169 173 174 175 174 172 175 178 177 175 174 175
284 276 272 282 285 289 290 289 287 286 286 286 282 285 288 289 287 283 278 274 274 276 275 269 263 265 267 266 265 264 267 268 259 236 236 246 261 266 269 263 267 282 282 275 279 286 286 277 242 219 216 215 213 210 213 215 212 211 207 200 199 199 197 196 189 178 199 173 160 168 170 170 169 170 173 174 174 173 172 176 177 176 174 174 175
282 282 279 280 286 285 286 288 284 281 280 278 280 280 281 281 280 278 276 274 273 274 273 270 263 260 258 257 262 266 265 260 259 253 242 248 247 262 266 278 274 263 277 290 284 278 277 273 259 229 214 212 210 209 209 212 212 209 204 197 197 196 196 191 179 175 170 183 171 163 168 171 169 170 174 174 173 172 173 177 177 176 174 174 175
289 285 285 287 287 288 287 284 285 278 276 277 276 275 275 274 276 278 276 275 274 272 272 267 267 266 275 276 275 273 274 273 268 254 243 239 237 259 260 256 269 279 273 285 284 282 270 277 275 236 210 207 204 204 206 202 206 202 198 198 193 194 192 192 192 175 170 169 175 173 165 169 168 172 174 173 172 172 175 177 175 176 176 175 176
292 287 290 289 280 276 281 280 276 275 274 275 275 275 273 273 273 275 275 273 272 268 265 264 268 274 274 275 272 275 275 276 267 252 243 235 237 246 266 262 256 271 282 279 268 284 279 248 266 253 212 198 196 194 190 196 200 190 190 189 191 183 178 173 171 184 167 162 166 173 167 165 170 169 171 171 171 174 176 175 178 177 176 176 178
287 289 291 286 283 280 277 277 276 274 275 276 276 273 271 272 271 272 274 269 268 267 265 270 275 274 272 270 276 274 276 278 272 254 242 235 228 236 246 265 266 262 273 271 275 243 261 280 276 280 251 194 186 179 174 178 169 189 165 172 171 172 162 155 152 155 166 159 157 165 170 167 167 166 167 170 173 177 177 177 177 176 176 178 178
289 290 288 287 286 286 282 277 275 272 272 273 275 275 276 275 274 271 272 272 271 267 265 266 266 266 267 270 271 272 277 278 273 256 243 236 227 229 231 244 263 273 270 278 271 268 248 265 284 264 249 227 182 174 172 163 157 184 185 158 154 158 156 151 151 153 158 165 161 167 171 171 166 164 166 167 174 175 178 177 177 175 175 174 175
291 292 292 289 286 283 283 281 278 275 273 274 273 274 277 275 272 273 270 272 271 272 274 273 271 268 263 264 264 270 272 277 277 260 242 238 229 225 224 236 241 256 270 275 271 266 272 217 267 270 235 222 196 173 166 168 164 164 217 184 149 151 153 149 153 157 161 164 168 172 174 170 166 164 166 168 171 175 177 177 175 172 172 174 176
293 292 291 289 287 285 285 284 282 279 277 276 274 275 275 273 271 269 270 272 272 272 271 266 262 254 254 255 261 265 267 272 275 266 242 233 229 220 227 231 234 244 253 263 273 250 274 267 247 271 251 210 191 179 172 167 166 171 158 172 173 158 157 156 159 161 163 165 168 171 173 171 167 166 167 167 168 171 175 174 172 171 172 179 175
294 293 292 291 289 288 286 285 286 285 283 279 278 276 273 273 273 270 270 266 268 269 269 271 277 279 279 276 272 272 274 276 277 270 245 229 226 223 228 233 233 236 245 252 268 263 203 267 262 258 269 220 188 183 179 174 169 182 162 161 174 172 165 162 162 162 164 166 169 170 172 170 169 167 166 166 167 171 174 173 174 174 174 180 176
294 293 293 292 291 291 289 287 285 285 285 285 283 280 278 275 272 272 269 269 267 266 269 271 277 278 279 278 275 274 271 274 276 275 255 231 225 228 226 229 234 232 237 245 249 270 232 246 263 273 279 267 196 177 183 187 170 178 170 163 168 164 173 173 169 165 164 168 168 170 169 167 167 168 167 166 168 173 176 179 176 176 177 178 177
297 295 292 291 291 289 289 286 287 285 287 286 285 280 277 273 272 271 273 268 268 268 268 270 269 275 274 271 268 262 262 267 273 277 265 240 228 227 231 231 232 233 232 237 251 262 268 227 257 261 268 273 236 184 174 173 183 174 167 162 161 166 163 169 173 172 169 165 167 167 166 165 166 168 168 167 170 174 177 177 176 176 176 177 178
296 294 293 291 290 289 290 288 284 287 287 287 284 282 276 277 275 274 273 271 269 269 270 271 271 271 271 266 265 269 261 263 269 273 272 253 233 222 225 225 231 234 226 236 245 255 266 255 241 252 259 260 261 200 172 167 169 177 164 161 161 169 166 163 167 169 168 167 163 165 163 164 166 168 168 168 171 173 175 174 175 176 177 176 177
295 292 293 296 293 292 290 288 289 288 289 288 285 282 279 277 276 274 272 271 270 270 269 268 270 274 272 275 280 282 284 275 268 267 269 258 239 235 235 232 235 234 232 232 244 250 257 266 247 258 252 257 250 226 177 169 168 170 165 164 162 162 162 159 161 163 166 164 164 163 161 163 166 168 168 169 171 173 173 173 173 175 177 175 174
297 297 297 297 295 292 291 290 290 291 289 286 287 284 279 277 277 276 274 271 269 269 268 269 270 270 270 272 273 272 267 266 264 265 265 255 242 237 236 234 235 237 231 236 238 249 258 266 256 236 254 249 253 227 186 168 171 174 168 164 164 162 159 161 162 164 169 167 165 163 162 166 168 168 168 169 171 172 172 171 172 173 174 173 170
302 304 301 301 297 295 294 294 292 290 289 288 286 283 280 277 277 277 276 275 272 270 269 268 268 268 269 269 272 273 275 270 265 267 272 271 251 241 239 239 242 241 240 237 238 240 252 254 262 243 248 248 248 230 190 170 172 171 167 163 163 159 159 161 163 167 169 168 165 164 163 167 168 168 168 170 171 171 171 171 171 172 173 170 168
307 305 302 300 299 296 294 293 291 289 288 286 284 281 279 277 276 275 273 272 272 271 270 269 268 266 267 268 270 267 263 265 268 266 268 269 258 245 239 241 243 245 243 238 234 238 243 249 252 254 241 243 244 231 196 170 163 161 166 162 162 162 156 157 163 163 165 165 164 165 164 165 167 169 170 169 170 169 168 168 168 170 170 170 167
307 306 305 301 297 297 295 293 290 289 288 285 282 279 278 277 275 273 272 270 269 269 268 268 267 267 266 268 268 265 263 261 262 264 266 267 264 255 240 240 239 243 247 247 241 239 241 248 248 245 247 242 235 230 199 172 166 164 164 163 155 157 158 157 159 159 161 161 167 167 168 168 167 168 169 169 170 170 167 168 167 167 168 168 167
309 305 305 302 299 296 294 291 289 288 286 285 282 278 276 274 272 270 268 268 268 269 270 268 268 267 268 268 267 264 263 262 255 253 249 250 256 256 249 241 242 245 252 253 245 236 240 246 246 241 234 239 235 228 195 170 165 170 168 162 156 155 161 161 160 160 164 159 161 166 164 161 162 163 167 167 168 168 168 168 168 167 168 167 167
306 302 300 299 297 295 291 288 287 286 284 282 280 278 276 272 268 266 265 262 260 262 264 264 263 262 264 266 265 263 260 261 260 260 263 266 258 247 240 234 235 242 249 252 253 266 263 251 246 237 234 229 229 218 207 173 166 167 169 168 159 161 159 158 161 161 162 160 158 163 171 164 163 165 174 170 168 170 170 169 170 168 168 167 167
300 297 294 292 290 289 290 288 286 285 283 281 280 279 277 275 271 268 264 260 256 254 257 259 258 255 253 256 262 263 263 260 259 259 257 256 259 261 261 241 234 235 237 247 252 256 262 264 253 233 227 227 225 207 205 179 165 161 167 162 157 157 149 148 145 159 157 155 156 162 167 164 156 167 167 170 174 173 169 169 173 170 170 168 166
297 297 292 290 288 287 285 285 287 286 283 280 282 282 282 279 276 273 271 270 267 261 256 258 260 256 254 255 258 262 265 266 264 261 258 259 257 257 256 251 242 237 240 242 245 243 254 259 268 246 225 227 222 204 190 182 168 165 167 157 148 150 152 153 154 145 177 157 162 159 159 167 159 167 171 172 174 173 169 176 167 168 168 167 168
302 296 294 283 279 284 288 291 290 289 288 287 287 288 285 283 280 277 272 270 266 264 262 256 260 266 267 271 271 271 262 254 252 252 254 254 254 252 252 254 246 236 233 232 240 249 243 254 262 263 240 228 218 211 195 173 169 166 168 156 154 156 159 161 160 165 175 166 158 159 159 166 162 164 169 176 173 176 170 168 165 169 170 167 166
299 296 289 292 300 305 301 299 298 296 294 294 294 291 288 285 283 280 276 269 265 263 262 263 260 260 259 263 268 264 271 270 265 261 263 259 256 251 249 246 241 237 235 232 234 235 248 250 255 261 257 230 218 207 199 174 158 165 165 163 162 163 165 165 168 163 165 165 153 158 161 170 164 168 168 178 171 167 163 164 167 169 171 169 167
297 298 307 310 309 305 303 300 299 298 296 295 294 294 293 290 286 283 275 274 262 253 254 253 255 251 253 248 261 260 264 267 262 251 240 242 249 242 238 235 234 237 236 238 240 240 237 240 250 254 256 246 216 205 196 172 162 163 169 167 166 165 169 175 169 158 160 168 163 157 157 172 178 164 170 168 164 166 166 168 166 167 165 171 172
309 314 315 311 307 305 305 304 302 299 296 296 297 298 298 296 293 291 283 275 267 256 254 251 251 250 253 249 250 251 258 260 264 262 263 260 257 256 256 254 249 247 241 236 234 234 237 238 244 250 251 255 231 203 190 180 166 169 173 172 171 171 161 128 88 132 158 177 162 155 167 169 173 166 168 155 155 164 168 168 166 166 166 168 176
307 308 305 306 308 306 304 300 300 298 296 297 299 299 298 297 296 293 283 276 266 255 253 253 248 255 253 255 254 254 253 254 258 260 259 263 269 271 268 263 258 252 249 239 238 237 240 246 252 257 260 250 248 213 192 180 172 170 169 157 142 130 127 137 145 156 164 180 172 166 166 165 176 163 147 145 148 158 164 172 173 167 168 171 176
310 309 306 306 305 301 300 298 296 296 292 297 301 303 302 301 302 294 292 287 270 253 255 247 245 247 253 252 253 253 250 248 252 257 259 258 255 252 252 256 257 258 258 254 248 247 249 250 255 257 256 256 245 223 199 175 164 150 137 141 151 150 155 160 159 160 170 167 195 179 155 161 177 157 140 157 164 165 171 180 180 173 171 175 174
309 306 305 301 299 297 297 297 294 295 297 299 302 303 303 301 302 303 301 294 286 282 265 251 244 244 249 253 252 245 242 243 247 251 252 249 246 244 246 250 254 256 258 256 258 256 253 261 267 265 257 245 241 215 194 171 151 149 155 163 166 162 160 154 160 170 163 174 181 163 149 169 155 149 130 106 94 141 172 174 178 181 174 173 174
299 300 300 298 296 295 292 292 296 299 295 297 299 301 300 302 306 299 302 307 306 303 291 272 252 247 249 255 253 251 249 250 250 251 251 248 244 243 245 249 252 254 253 256 259 268 275 282 280 271 247 234 224 203 188 166 157 163 166 164 166 166 165 167 163 158 156 179 187 171 159 156 157 168 147 140 164 178 150 167 176 175 177 175 174